| time (UTC) | temp F | wind direction | speed MPH | gust MPH | rain 1hr in | rain 24hr in | rain mn in | humidity % | barometer mb |
| 20260503033006 | 42 | 218 | 5.0 | 6.0 | 0.00 | 0.04 | 0.04 | 70 | 1016.1 |
| 20260503032504 | 42 | 211 | 5.0 | 6.0 | 0.00 | 0.04 | 0.04 | 69 | 1016.1 |
| 20260503032002 | 42 | 217 | 5.0 | 6.0 | 0.00 | 0.04 | 0.04 | 70 | 1016.1 |
| 20260503031459 | 42 | 211 | 5.0 | 6.0 | 0.00 | 0.04 | 0.04 | 70 | 1016.1 |
| 20260503030956 | 42 | 202 | 5.0 | 6.0 | 0.00 | 0.04 | 0.04 | 71 | 1016.1 |
| 20260503030452 | 42 | 206 | 3.0 | 3.0 | 0.00 | 0.04 | 0.04 | 72 | 1016.0 |
| 20260503025949 | 43 | 206 | 4.0 | 5.0 | 0.00 | 0.04 | 0.04 | 70 | 1016.3 |
| 20260503025446 | 43 | 209 | 4.0 | 5.0 | 0.00 | 0.04 | 0.04 | 69 | 1016.2 |
| 20260503024944 | 43 | 202 | 3.0 | 3.0 | 0.00 | 0.04 | 0.04 | 69 | 1016.1 |
| 20260503024440 | 43 | 197 | 3.0 | 3.0 | 0.00 | 0.04 | 0.04 | 67 | 1016.0 |
| 20260503023937 | 43 | 197 | 3.0 | 3.0 | 0.00 | 0.04 | 0.04 | 68 | 1016.3 |
| 20260503023434 | 43 | 197 | 3.0 | 3.0 | 0.00 | 0.04 | 0.04 | 72 | 1016.2 |
| 20260503022931 | 43 | 203 | 3.0 | 3.0 | 0.00 | 0.04 | 0.04 | 71 | 1016.1 |
| 20260503022426 | 43 | 219 | 4.0 | 5.0 | 0.00 | 0.04 | 0.04 | 68 | 1016.2 |
| 20260503021922 | 44 | 210 | 3.0 | 3.0 | 0.00 | 0.04 | 0.04 | 70 | 1016.4 |
| 20260503021418 | 44 | 201 | 3.0 | 3.0 | 0.00 | 0.04 | 0.04 | 69 | 1016.2 |
| 20260503020916 | 44 | 188 | 3.0 | 3.0 | 0.00 | 0.04 | 0.04 | 68 | 1016.0 |
| 20260503020414 | 44 | 185 | 3.0 | 3.0 | 0.00 | 0.04 | 0.04 | 65 | 1016.2 |
| 20260503015910 | 44 | 186 | 3.0 | 3.0 | 0.00 | 0.04 | 0.04 | 62 | 1016.0 |
| 20260503015407 | 44 | 181 | 2.0 | 2.0 | 0.00 | 0.04 | 0.04 | 60 | 1015.9 |
| 20260503014903 | 44 | 187 | 2.0 | 2.0 | 0.00 | 0.04 | 0.04 | 67 | 1016.0 |
| 20260503014400 | 44 | 202 | 3.0 | 3.0 | 0.00 | 0.04 | 0.04 | 65 | 1016.0 |
| 20260503013858 | 44 | 197 | 3.0 | 3.0 | 0.00 | 0.04 | 0.04 | 67 | 1016.0 |
| 20260503013355 | 44 | 201 | 3.0 | 3.0 | 0.00 | 0.04 | 0.04 | 69 | 1015.9 |
| 20260503012852 | 44 | 208 | 2.0 | 2.0 | 0.00 | 0.04 | 0.04 | 70 | 1016.0 |
| 20260503012349 | 44 | 212 | 3.0 | 3.0 | 0.00 | 0.04 | 0.04 | 69 | 1016.1 |
| 20260503011846 | 44 | 198 | 3.0 | 3.0 | 0.00 | 0.04 | 0.04 | 66 | 1015.9 |
| 20260503011343 | 44 | 193 | 3.0 | 3.0 | 0.00 | 0.04 | 0.04 | 63 | 1016.0 |
| 20260503010839 | 44 | 207 | 3.0 | 3.0 | 0.00 | 0.04 | 0.04 | 64 | 1016.2 |
| 20260503010337 | 45 | 214 | 3.0 | 3.0 | 0.00 | 0.04 | 0.04 | 66 | 1015.8 |
| 20260503005833 | 44 | 216 | 3.0 | 3.0 | 0.00 | 0.04 | 0.04 | 66 | 1015.8 |
| 20260503005331 | 45 | 217 | 1.0 | 1.0 | 0.00 | 0.04 | 0.04 | 66 | 1015.9 |
| 20260503004827 | 45 | 215 | 1.0 | 1.0 | 0.00 | 0.04 | 0.04 | 62 | 1016.0 |
| 20260503004325 | 46 | 228 | 2.0 | 2.0 | 0.00 | 0.04 | 0.04 | 59 | 1015.8 |
| 20260503003822 | 46 | 236 | 2.0 | 2.0 | 0.00 | 0.04 | 0.04 | 51 | 1015.9 |
| 20260503003319 | 46 | 318 | 2.0 | 2.0 | 0.00 | 0.04 | 0.04 | 48 | 1015.8 |
| 20260503002816 | 46 | 240 | 2.0 | 2.0 | 0.00 | 0.04 | 0.04 | 48 | 1015.8 |
| 20260503002313 | 46 | 260 | 3.0 | 3.0 | 0.00 | 0.04 | 0.04 | 53 | 1015.7 |
| 20260503001809 | 47 | 240 | 3.0 | 3.0 | 0.00 | 0.04 | 0.04 | 54 | 1015.9 |
| 20260503001306 | 47 | 255 | 3.0 | 3.0 | 0.00 | 0.04 | 0.04 | 48 | 1015.6 |
| 20260503000803 | 47 | 301 | 1.0 | 1.0 | 0.00 | 0.04 | 0.04 | 49 | 1015.7 |
| 20260503000300 | 47 | 304 | 2.0 | 2.0 | 0.00 | 0.04 | 0.04 | 48 | 1015.9 |
| 20260502235757 | 47 | 298 | 1.0 | 1.0 | 0.00 | 0.04 | 0.04 | 50 | 1015.7 |
| 20260502235255 | 47 | 318 | 1.0 | 1.0 | 0.00 | 0.04 | 0.04 | 50 | 1015.7 |
| 20260502234751 | 47 | 321 | 2.0 | 2.0 | 0.00 | 0.04 | 0.04 | 48 | 1015.8 |
| 20260502234248 | 47 | 307 | 3.0 | 3.0 | 0.00 | 0.04 | 0.04 | 45 | 1015.7 |
| 20260502233744 | 48 | 310 | 3.0 | 3.0 | 0.00 | 0.04 | 0.04 | 45 | 1015.7 |
| 20260502233241 | 48 | 302 | 4.0 | 6.0 | 0.00 | 0.04 | 0.04 | 45 | 1015.9 |
| 20260502232737 | 48 | 325 | 5.0 | 6.0 | 0.00 | 0.04 | 0.04 | 44 | 1016.0 |
| 20260502232234 | 48 | 300 | 5.0 | 6.0 | 0.00 | 0.04 | 0.04 | 41 | 1015.7 |
| 20260502231731 | 48 | 304 | 5.0 | 6.0 | 0.00 | 0.04 | 0.04 | 41 | 1015.9 |
| 20260502231229 | 49 | 291 | 4.0 | 5.0 | 0.00 | 0.04 | 0.04 | 43 | 1015.6 |
| 20260502230727 | 48 | 305 | 5.0 | 6.0 | 0.00 | 0.04 | 0.04 | 43 | 1015.9 |
| 20260502230225 | 48 | 335 | 6.0 | 7.0 | 0.00 | 0.04 | 0.04 | 43 | 1016.0 |
| 20260502225721 | 48 | 327 | 5.0 | 6.0 | 0.00 | 0.04 | 0.04 | 44 | 1015.9 |
| 20260502225218 | 48 | 295 | 7.0 | 7.0 | 0.00 | 0.04 | 0.04 | 43 | 1015.8 |
| 20260502224714 | 48 | 313 | 4.0 | 5.0 | 0.00 | 0.04 | 0.04 | 45 | 1015.8 |
| 20260502224211 | 48 | 314 | 4.0 | 6.0 | 0.00 | 0.04 | 0.04 | 44 | 1015.8 |
| 20260502223709 | 48 | 302 | 6.0 | 7.0 | 0.00 | 0.04 | 0.04 | 42 | 1015.9 |
| 20260502223207 | 48 | 298 | 4.0 | 5.0 | 0.00 | 0.04 | 0.04 | 45 | 1015.6 |
| 20260502222704 | 48 | 283 | 4.0 | 5.0 | 0.00 | 0.04 | 0.04 | 45 | 1015.7 |
| 20260502222201 | 48 | 307 | 4.0 | 5.0 | 0.00 | 0.04 | 0.04 | 46 | 1016.0 |
| 20260502221656 | 48 | 290 | 6.0 | 8.0 | 0.00 | 0.04 | 0.04 | 44 | 1015.9 |
| 20260502221154 | 48 | 308 | 8.0 | 10.0 | 0.00 | 0.04 | 0.04 | 44 | 1015.9 |
| 20260502220649 | 48 | 299 | 6.0 | 7.0 | 0.00 | 0.04 | 0.04 | 42 | 1015.9 |
| 20260502220146 | 48 | 324 | 9.0 | 10.0 | 0.00 | 0.04 | 0.04 | 41 | 1016.1 |
| 20260502215643 | 48 | 302 | 8.0 | 10.0 | 0.00 | 0.04 | 0.04 | 41 | 1015.8 |
| 20260502215140 | 48 | 306 | 7.0 | 8.0 | 0.00 | 0.04 | 0.04 | 42 | 1015.9 |
| 20260502214637 | 48 | 327 | 6.0 | 8.0 | 0.00 | 0.04 | 0.04 | 46 | 1016.0 |
| 20260502214134 | 48 | 349 | 8.0 | 9.0 | 0.00 | 0.04 | 0.04 | 41 | 1016.0 |
| 20260502213631 | 48 | 327 | 9.0 | 10.0 | 0.00 | 0.04 | 0.04 | 43 | 1015.8 |
| 20260502213128 | 48 | 318 | 8.0 | 9.0 | 0.00 | 0.04 | 0.04 | 42 | 1015.8 |
| 20260502212627 | 48 | 292 | 9.0 | 10.0 | 0.00 | 0.04 | 0.04 | 41 | 1015.9 |
| 20260502212120 | 48 | 327 | 9.0 | 9.0 | 0.00 | 0.04 | 0.04 | 42 | 1016.0 |
| 20260502211620 | 48 | 306 | 5.0 | 6.0 | 0.00 | 0.04 | 0.04 | 44 | 1016.1 |
| 20260502211112 | 48 | 321 | 5.0 | 6.0 | 0.00 | 0.04 | 0.04 | 40 | 1015.8 |
| 20260502210609 | 48 | 325 | 5.0 | 6.0 | 0.00 | 0.04 | 0.04 | 46 | 1016.1 |
| 20260502210106 | 48 | 316 | 7.0 | 9.0 | 0.00 | 0.04 | 0.04 | 44 | 1016.0 |
| 20260502205603 | 48 | 351 | 6.0 | 8.0 | 0.00 | 0.04 | 0.04 | 42 | 1015.9 |
| 20260502205100 | 47 | 346 | 7.0 | 8.0 | 0.00 | 0.04 | 0.04 | 40 | 1016.0 |
| 20260502204556 | 48 | 327 | 9.0 | 10.0 | 0.00 | 0.04 | 0.04 | 44 | 1015.8 |
| 20260502204054 | 48 | 336 | 11.0 | 14.0 | 0.00 | 0.04 | 0.04 | 41 | 1016.0 |
| 20260502203551 | 48 | 335 | 7.0 | 8.0 | 0.00 | 0.04 | 0.04 | 40 | 1016.1 |
| 20260502203048 | 49 | 342 | 4.0 | 5.0 | 0.00 | 0.04 | 0.04 | 42 | 1015.8 |
| 20260502202544 | 48 | 348 | 3.0 | 5.0 | 0.00 | 0.04 | 0.04 | 42 | 1015.9 |
| 20260502202043 | 48 | 245 | 9.0 | 10.0 | 0.00 | 0.04 | 0.04 | 39 | 1016.1 |
| 20260502201538 | 48 | 236 | 4.0 | 5.0 | 0.00 | 0.04 | 0.04 | 44 | 1016.1 |
| 20260502201035 | 48 | 309 | 5.0 | 6.0 | 0.00 | 0.04 | 0.04 | 39 | 1016.3 |
| 20260502200531 | 48 | 303 | 6.0 | 7.0 | 0.00 | 0.04 | 0.04 | 43 | 1016.4 |
| 20260502200029 | 47 | 263 | 3.0 | 3.0 | 0.00 | 0.04 | 0.04 | 43 | 1016.6 |
| 20260502195526 | 47 | 324 | 8.0 | 8.0 | 0.00 | 0.04 | 0.04 | 42 | 1016.4 |
| 20260502195022 | 47 | 336 | 6.0 | 7.0 | 0.00 | 0.04 | 0.04 | 40 | 1016.5 |
| 20260502194519 | 47 | 296 | 6.0 | 8.0 | 0.00 | 0.04 | 0.04 | 44 | 1016.6 |
| 20260502194015 | 47 | 313 | 9.0 | 11.0 | 0.00 | 0.04 | 0.04 | 44 | 1016.7 |
| 20260502193513 | 48 | 349 | 6.0 | 8.0 | 0.00 | 0.04 | 0.04 | 43 | 1016.5 |
| 20260502193009 | 47 | 11 | 6.0 | 8.0 | 0.00 | 0.04 | 0.04 | 43 | 1016.7 |
| 20260502192505 | 48 | 329 | 3.0 | 5.0 | 0.00 | 0.04 | 0.04 | 44 | 1016.7 |
| 20260502192003 | 47 | 350 | 5.0 | 6.0 | 0.00 | 0.04 | 0.04 | 45 | 1016.6 |
| 20260502191500 | 47 | 299 | 6.0 | 6.0 | 0.00 | 0.04 | 0.04 | 47 | 1016.7 |
| 20260502190957 | 47 | 274 | 3.0 | 3.0 | 0.00 | 0.04 | 0.04 | 43 | 1016.7 |
| 20260502190454 | 47 | 343 | 5.0 | 6.0 | 0.00 | 0.04 | 0.04 | 44 | 1016.8 |
| 20260502185950 | 47 | 220 | 6.0 | 7.0 | 0.00 | 0.04 | 0.04 | 47 | 1016.7 |
| 20260502185446 | 47 | 233 | 8.0 | 8.0 | 0.00 | 0.04 | 0.04 | 45 | 1016.9 |
| 20260502184943 | 46 | 324 | 4.0 | 5.0 | 0.00 | 0.04 | 0.04 | 48 | 1017.1 |
| 20260502184438 | 47 | 332 | 5.0 | 7.0 | 0.00 | 0.04 | 0.04 | 50 | 1017.0 |
| 20260502183935 | 46 | 340 | 5.0 | 6.0 | 0.00 | 0.04 | 0.04 | 46 | 1017.0 |
| 20260502183431 | 46 | 344 | 5.0 | 7.0 | 0.00 | 0.04 | 0.04 | 45 | 1016.9 |
| 20260502182926 | 47 | 2 | 6.0 | 6.0 | 0.00 | 0.04 | 0.04 | 45 | 1017.1 |
| 20260502182422 | 46 | 4 | 3.0 | 5.0 | 0.00 | 0.04 | 0.04 | 44 | 1017.3 |
| 20260502181918 | 46 | 301 | 8.0 | 13.0 | 0.00 | 0.04 | 0.04 | 49 | 1016.9 |
| 20260502181411 | 47 | 311 | 5.0 | 6.0 | 0.00 | 0.04 | 0.04 | 46 | 1017.0 |
| 20260502180910 | 46 | 212 | 4.0 | 6.0 | 0.00 | 0.04 | 0.04 | 49 | 1017.2 |
| 20260502180406 | 46 | 269 | 3.0 | 6.0 | 0.00 | 0.04 | 0.04 | 47 | 1017.2 |
| 20260502170325 | 45 | 238 | 5.0 | 6.0 | 0.00 | 0.04 | 0.04 | 55 | 1017.5 |
| 20260502164312 | 44 | 293 | 1.0 | 2.0 | 0.00 | 0.04 | 0.04 | 56 | 1017.8 |
| 20260502163808 | 44 | 309 | 2.0 | 2.0 | 0.00 | 0.04 | 0.04 | 58 | 1017.8 |
| 20260502163305 | 44 | 269 | 4.0 | 5.0 | 0.00 | 0.04 | 0.04 | 59 | 1017.8 |
| 20260502162803 | 44 | 284 | 3.0 | 5.0 | 0.00 | 0.04 | 0.04 | 61 | 1017.8 |
| 20260502162259 | 44 | 285 | 3.0 | 3.0 | 0.00 | 0.04 | 0.04 | 58 | 1017.8 |
| 20260502161755 | 43 | 314 | 3.0 | 3.0 | 0.00 | 0.04 | 0.04 | 57 | 1018.0 |
| 20260502161252 | 43 | 354 | 7.0 | 8.0 | 0.00 | 0.04 | 0.04 | 60 | 1017.9 |
| 20260502160750 | 43 | 338 | 5.0 | 6.0 | 0.00 | 0.04 | 0.04 | 56 | 1018.0 |
| 20260502160249 | 43 | 316 | 7.0 | 9.0 | 0.00 | 0.04 | 0.04 | 59 | 1017.8 |
| 20260502152218 | 43 | 349 | 4.0 | 5.0 | 0.00 | 0.04 | 0.04 | 60 | 1017.6 |
| 20260502151716 | 43 | 7 | 3.0 | 5.0 | 0.00 | 0.04 | 0.04 | 61 | 1017.5 |
| 20260502151213 | 43 | 348 | 5.0 | 6.0 | 0.00 | 0.04 | 0.04 | 59 | 1017.6 |
| 20260502150710 | 43 | 330 | 5.0 | 6.0 | 0.00 | 0.04 | 0.04 | 61 | 1017.5 |
| 20260502150206 | 43 | 3 | 9.0 | 10.0 | 0.00 | 0.04 | 0.04 | 61 | 1017.5 |
| 20260502140130 | 43 | 327 | 11.0 | 11.0 | 0.00 | 0.04 | 0.04 | 72 | 1017.2 |
| 20260502130555 | 41 | 343 | 7.0 | 8.0 | 0.00 | 0.04 | 0.04 | 79 | 1017.1 |
| 20260502123538 | 40 | 322 | 7.0 | 8.0 | 0.00 | 0.04 | 0.04 | 83 | 1017.3 |
| 20260502123034 | 40 | 307 | 7.0 | 8.0 | 0.00 | 0.04 | 0.04 | 83 | 1016.9 |
| 20260502122531 | 40 | 313 | 6.0 | 7.0 | 0.00 | 0.04 | 0.04 | 82 | 1017.0 |
| 20260502122029 | 40 | 319 | 7.0 | 8.0 | 0.00 | 0.04 | 0.04 | 81 | 1017.1 |
| 20260502121526 | 40 | 343 | 5.0 | 7.0 | 0.00 | 0.04 | 0.04 | 81 | 1017.1 |
| 20260502121023 | 40 | 334 | 7.0 | 8.0 | 0.00 | 0.04 | 0.04 | 81 | 1017.1 |
| 20260502120519 | 40 | 342 | 6.0 | 7.0 | 0.00 | 0.04 | 0.04 | 80 | 1016.8 |
| 20260502115514 | 40 | 314 | 7.0 | 8.0 | 0.00 | 0.04 | 0.04 | 79 | 1016.8 |
| 20260502115010 | 40 | 355 | 5.0 | 6.0 | 0.00 | 0.04 | 0.04 | 79 | 1017.1 |
| 20260502114507 | 40 | 346 | 3.0 | 3.0 | 0.00 | 0.04 | 0.04 | 77 | 1016.9 |
| 20260502114004 | 40 | 342 | 3.0 | 3.0 | 0.00 | 0.04 | 0.04 | 79 | 1017.0 |
| 20260502113501 | 40 | 342 | 2.0 | 2.0 | 0.00 | 0.04 | 0.04 | 83 | 1016.9 |
| 20260502113000 | 40 | 328 | 1.0 | 1.0 | 0.00 | 0.04 | 0.04 | 83 | 1016.9 |
| 20260502112457 | 40 | 357 | 2.0 | 2.0 | 0.00 | 0.04 | 0.04 | 81 | 1016.8 |
| 20260502111954 | 40 | 322 | 2.0 | 2.0 | 0.00 | 0.04 | 0.04 | 82 | 1016.7 |
| 20260502111451 | 40 | 329 | 2.0 | 2.0 | 0.00 | 0.04 | 0.04 | 83 | 1016.7 |
| 20260502110949 | 39 | 338 | 2.0 | 2.0 | 0.00 | 0.04 | 0.04 | 81 | 1016.7 |
| 20260502110446 | 39 | 333 | 2.0 | 2.0 | 0.00 | 0.04 | 0.04 | 86 | 1016.6 |
| 20260502105943 | 40 | 321 | 2.0 | 2.0 | 0.00 | 0.04 | 0.04 | 81 | 1016.7 |
| 20260502105441 | 40 | 6 | 1.0 | 2.0 | 0.00 | 0.04 | 0.04 | 79 | 1016.6 |
| 20260502104939 | 40 | 359 | 1.0 | 1.0 | 0.00 | 0.04 | 0.04 | 79 | 1016.5 |
| 20260502104435 | 39 | 358 | 1.0 | 1.0 | 0.00 | 0.04 | 0.04 | 79 | 1016.6 |
| 20260502103933 | 39 | 342 | 1.0 | 1.0 | 0.00 | 0.04 | 0.04 | 79 | 1016.3 |
| 20260502103430 | 39 | 356 | 2.0 | 2.0 | 0.00 | 0.04 | 0.04 | 79 | 1016.4 |
| 20260502102927 | 40 | 12 | 1.0 | 1.0 | 0.00 | 0.04 | 0.04 | 78 | 1016.3 |
| 20260502102424 | 40 | 348 | 2.0 | 2.0 | 0.00 | 0.04 | 0.04 | 78 | 1016.2 |
| 20260502101921 | 39 | 17 | 1.0 | 1.0 | 0.00 | 0.04 | 0.04 | 78 | 1016.5 |
| 20260502101420 | 39 | 25 | 1.0 | 1.0 | 0.00 | 0.04 | 0.04 | 80 | 1016.3 |
| 20260502100917 | 39 | 353 | 3.0 | 3.0 | 0.00 | 0.04 | 0.04 | 79 | 1016.7 |
| 20260502100417 | 39 | 340 | 2.0 | 2.0 | 0.00 | 0.04 | 0.04 | 79 | 1016.4 |
| 20260502091350 | 39 | 21 | 5.0 | 6.0 | 0.00 | 0.04 | 0.04 | 84 | 1016.3 |
| 20260502090848 | 39 | 36 | 7.0 | 7.0 | 0.00 | 0.04 | 0.04 | 83 | 1016.2 |
| 20260502090344 | 39 | 28 | 6.0 | 7.0 | 0.00 | 0.04 | 0.04 | 84 | 1016.1 |
| 20260502071239 | 40 | 310 | 8.0 | 9.0 | 0.00 | 0.00 | 0.00 | 77 | 1015.5 |
| 20260502070738 | 40 | 313 | 7.0 | 8.0 | 0.00 | 0.00 | 0.00 | 80 | 1015.6 |
| 20260502070235 | 40 | 299 | 7.0 | 8.0 | 0.00 | 0.00 | 0.00 | 81 | 1015.6 |
| 20260502065733 | 40 | 286 | 5.0 | 6.0 | 0.00 | 0.00 | 0.00 | 80 | 1015.4 |
| 20260502065231 | 40 | 295 | 5.0 | 6.0 | 0.00 | 0.00 | 0.00 | 81 | 1015.5 |
| 20260502064729 | 40 | 306 | 3.0 | 5.0 | 0.00 | 0.00 | 0.00 | 81 | 1015.6 |
| 20260502064226 | 40 | 296 | 5.0 | 6.0 | 0.00 | 0.00 | 0.00 | 81 | 1015.5 |
| 20260502063724 | 40 | 303 | 5.0 | 6.0 | 0.00 | 0.00 | 0.00 | 81 | 1015.6 |
| 20260502063222 | 40 | 296 | 6.0 | 7.0 | 0.00 | 0.00 | 0.00 | 81 | 1015.7 |
| 20260502062718 | 40 | 309 | 5.0 | 6.0 | 0.00 | 0.00 | 0.00 | 82 | 1015.5 |
| 20260502062216 | 40 | 297 | 4.0 | 5.0 | 0.00 | 0.00 | 0.00 | 82 | 1015.7 |
| 20260502061715 | 41 | 301 | 4.0 | 5.0 | 0.00 | 0.00 | 0.00 | 80 | 1015.7 |
| 20260502061212 | 41 | 317 | 2.0 | 2.0 | 0.00 | 0.00 | 0.00 | 80 | 1015.6 |
| 20260502060707 | 41 | 302 | 4.0 | 5.0 | 0.00 | 0.00 | 0.00 | 81 | 1015.6 |
| 20260502060203 | 41 | 310 | 2.0 | 2.0 | 0.00 | 0.00 | 0.00 | 82 | 1015.9 |
| 20260502055701 | 41 | 317 | 2.0 | 2.0 | 0.00 | 0.00 | 0.00 | 83 | 1015.7 |
| 20260502055159 | 41 | 317 | 2.0 | 2.0 | 0.00 | 0.00 | 0.00 | 81 | 1015.6 |
| 20260502054658 | 41 | 310 | 2.0 | 2.0 | 0.00 | 0.00 | 0.00 | 82 | 1015.8 |
| 20260502054155 | 40 | 328 | 3.0 | 3.0 | 0.00 | 0.00 | 0.00 | 83 | 1016.0 |
| 20260502053652 | 40 | 311 | 3.0 | 3.0 | 0.00 | 0.00 | 0.00 | 83 | 1015.9 |
| 20260502053149 | 41 | 306 | 4.0 | 5.0 | 0.00 | 0.00 | 0.00 | 82 | 1016.0 |
| 20260502052647 | 41 | 315 | 4.0 | 5.0 | 0.00 | 0.00 | 0.00 | 82 | 1015.9 |
| 20260502052145 | 42 | 308 | 3.0 | 3.0 | 0.00 | 0.00 | 0.00 | 80 | 1015.8 |
| 20260502051643 | 42 | 297 | 5.0 | 5.0 | 0.00 | 0.00 | 0.00 | 80 | 1015.8 |
| 20260502051141 | 42 | 296 | 5.0 | 6.0 | 0.00 | 0.00 | 0.00 | 81 | 1015.8 |
| 20260502050637 | 42 | 300 | 5.0 | 6.0 | 0.00 | 0.00 | 0.00 | 81 | 1015.8 |
| 20260502050133 | 42 | 322 | 3.0 | 3.0 | 0.00 | 0.00 | 0.00 | 81 | 1015.9 |
| 20260502045630 | 42 | 305 | 3.0 | 3.0 | 0.00 | 0.00 | 0.00 | 80 | 1016.0 |
| 20260502045128 | 42 | 304 | 4.0 | 5.0 | 0.00 | 0.00 | 0.00 | 80 | 1015.8 |
| 20260502044624 | 42 | 280 | 3.0 | 3.0 | 0.00 | 0.00 | 0.00 | 81 | 1015.9 |
| 20260502044120 | 42 | 295 | 2.0 | 2.0 | 0.00 | 0.00 | 0.00 | 81 | 1016.0 |
| 20260502043618 | 42 | 314 | 1.0 | 1.0 | 0.00 | 0.00 | 0.00 | 81 | 1015.9 |
| 20260502043114 | 42 | 311 | 2.0 | 3.0 | 0.00 | 0.00 | 0.00 | 79 | 1015.7 |
| 20260502042609 | 43 | 309 | 3.0 | 3.0 | 0.00 | 0.00 | 0.00 | 80 | 1015.9 |
| 20260502042107 | 43 | 322 | 3.0 | 3.0 | 0.00 | 0.00 | 0.00 | 80 | 1015.9 |
| 20260502041604 | 43 | 322 | 4.0 | 5.0 | 0.00 | 0.00 | 0.00 | 79 | 1015.8 |
| 20260502041101 | 43 | 313 | 4.0 | 5.0 | 0.00 | 0.00 | 0.00 | 78 | 1015.9 |
| 20260502040557 | 43 | 340 | 3.0 | 3.0 | 0.00 | 0.00 | 0.00 | 78 | 1015.9 |
| 20260502040055 | 43 | 318 | 4.0 | 5.0 | 0.00 | 0.49 | 0.49 | 78 | 1016.0 |
| 20260502035551 | 43 | 354 | 4.0 | 5.0 | 0.00 | 0.49 | 0.49 | 79 | 1015.9 |
| 20260502035048 | 43 | 317 | 5.0 | 6.0 | 0.00 | 0.49 | 0.49 | 80 | 1015.8 |
| 20260502034546 | 43 | 332 | 5.0 | 6.0 | 0.00 | 0.49 | 0.49 | 80 | 1015.7 |
| 20260502034044 | 43 | 315 | 5.0 | 6.0 | 0.00 | 0.49 | 0.49 | 80 | 1015.8 |
| 20260502033542 | 43 | 322 | 5.0 | 6.0 | 0.00 | 0.49 | 0.49 | 81 | 1016.0 |